Jackson, WY

5:02 AM MDT on August 23, 2017 (GMT -0600)
Jackson Hole

Weather History for KJAC - November, 2013

Change the Weather History Date:

Wednesday, November 6, 2013

  Actual Average Record
Temperature  
Mean Temperature 28 °F -  
Max Temperature 33 °F 43 °F 62 °F (1999)
Min Temperature 23 °F 19 °F -4 °F (1961)
Degree Days  
Heating Degree Days 37    
Moisture  
Dew Point 27 °F    
Average Humidity 92    
Maximum Humidity 100    
Minimum Humidity 75    
Precipitation  
Precipitation 0.05 in - - ()
Sea Level Pressure  
Sea Level Pressure 30.27 in    
Wind  
Wind Speed 7 mph (SSW)    
Max Wind Speed 17 mph    
Max Gust Speed 26 mph    
Visibility 6 miles    
Events Snow    
Averages and records for this station are not official NWS values.
T = Trace of Precipitation, MM = Missing Value Source: NWS Daily Summary

Daily Weather History Graph

Daily Weather History Graph

Search for Another Location

Airport or City:

Trip Planner

Search our weather history database for the weather conditions in past years. The results will help you decide how hot, cold, wet, or windy it might be!

Date:

Astronomy

Nov. 06, 2013 Rise Set
Actual Time 7:05 AM MST 5:07 PM MST
Civil Twilight 6:35 AM MST 5:37 PM MST
Nautical Twilight 6:01 AM MST 6:11 PM MST
Astronomical Twilight 5:27 AM MST 6:44 PM MST
Moon 10:26 AM MST (11/6) 8:12 PM MST (11/6)
Length of Visible Light 11h 01m
Length of Day
10h 01m
Waxing Crescent, 14% of the Moon is Illuminated
Nov 6
Waxing Crescent
Nov 9
First Quarter
Nov 17
Full
Nov 25
Last Quarter
Dec 2
New

Hourly Weather History & Observations

Time (MST) Temp. Windchill Dew Point Humidity Pressure Visibility Wind Dir Wind Speed Gust Speed Precip Events Conditions
12:15 AM 23.0 °F 12.4 °F 23.0 °F 100% 30.20 in 2.5 mi SW 10.4 mph - N/A   Overcast
12:55 AM 24.8 °F 14.0 °F 23.0 °F 93% 30.20 in 5.0 mi SSW 11.5 mph - N/A   Overcast
1:15 AM 24.8 °F 16.1 °F 23.0 °F 93% 30.20 in 2.5 mi SW 8.1 mph - N/A   Overcast
1:35 AM 24.8 °F 16.9 °F 24.8 °F 100% 30.21 in 1.5 mi SSW 6.9 mph - N/A   Overcast
1:55 AM 24.8 °F 17.9 °F 24.8 °F 100% 30.21 in 2.0 mi SW 5.8 mph - 0.01 in   Overcast
2:15 AM 24.8 °F 17.9 °F 24.8 °F 100% 30.21 in 1.5 mi SSW 5.8 mph - N/A   Overcast
2:35 AM 24.8 °F 19.1 °F 24.8 °F 100% 30.21 in 2.0 mi SW 4.6 mph - N/A   Overcast
2:55 AM 24.8 °F 17.9 °F 24.8 °F 100% 30.21 in 1.8 mi SSW 5.8 mph - N/A   Overcast
3:15 AM 24.8 °F 17.9 °F 24.8 °F 100% 30.21 in 2.0 mi SSW 5.8 mph - 0.01 in   Overcast
3:35 AM 24.8 °F 19.1 °F 24.8 °F 100% 30.21 in 1.8 mi SSW 4.6 mph - 0.01 in   Overcast
3:55 AM 24.8 °F 20.5 °F 24.8 °F 100% 30.20 in 2.0 mi SW 3.5 mph - 0.01 in   Overcast
4:15 AM 24.8 °F 16.9 °F 24.8 °F 100% 30.21 in 3.0 mi WSW 6.9 mph - N/A   Overcast
4:35 AM 24.8 °F 20.5 °F 24.8 °F 100% 30.21 in 4.0 mi SSW 3.5 mph - N/A   Overcast
4:55 AM 24.8 °F - 24.8 °F 100% 30.20 in 3.0 mi Calm Calm - N/A   Overcast
5:15 AM 24.8 °F - 24.8 °F 100% 30.21 in 2.5 mi Calm Calm - 0.01 in   Overcast
5:35 AM 24.8 °F 20.5 °F 24.8 °F 100% 30.20 in 2.0 mi West 3.5 mph - 0.01 in   Overcast
5:55 AM 24.8 °F - 24.8 °F 100% 30.21 in 2.5 mi Calm Calm - 0.02 in   Overcast
6:35 AM 24.8 °F - 24.8 °F 100% 30.21 in - Calm Calm - 0.01 in   Unknown
6:54 AM 24.8 °F - 23.0 °F 93% 30.21 in 2.0 mi Calm Calm - N/A Snow Light Snow
7:59 AM 24.8 °F - 24.8 °F 100% 30.24 in 1.0 mi Calm Calm - N/A Snow Light Snow
8:54 AM 26.6 °F 22.6 °F 26.6 °F 100% 30.25 in 3.0 mi ENE 3.5 mph - N/A Snow Light Snow
9:16 AM 28.4 °F - 26.6 °F 93% 30.26 in 1.5 mi Calm Calm - N/A Snow Light Snow
9:54 AM 30.2 °F 21.9 °F 28.4 °F 93% 30.27 in 1.5 mi South 9.2 mph - N/A Snow Light Snow
10:52 AM 30.2 °F 21.3 °F 28.4 °F 93% 30.28 in 3.0 mi South 10.4 mph - N/A Snow Light Snow
11:57 AM 32.0 °F 20.8 °F 28.4 °F 87% 30.28 in 7.0 mi SSE 17.3 mph - N/A Snow Snow Showers
12:55 PM 32.0 °F 22.5 °F 28.4 °F 87% 30.29 in 10.0 mi SSE 12.7 mph - N/A Snow Snow Showers
1:52 PM 33.8 °F 25.8 °F 28.4 °F 81% 30.30 in 10.0 mi SSE 10.4 mph 19.6 mph N/A   Overcast
2:55 PM 33.8 °F 25.3 °F 28.4 °F 81% 30.31 in 10.0 mi SSE 11.5 mph 26.5 mph N/A   Overcast
3:53 PM 33.8 °F 24.3 °F 28.4 °F 81% 30.31 in 10.0 mi South 13.8 mph 21.9 mph N/A   Overcast
4:53 PM 33.8 °F 24.8 °F 26.6 °F 75% 30.32 in 10.0 mi South 12.7 mph - N/A   Overcast
5:53 PM 33.8 °F 29.6 °F 28.4 °F 81% 30.33 in 10.0 mi South 4.6 mph - N/A   Overcast
6:54 PM 32.0 °F 24.2 °F 28.4 °F 87% 30.34 in 10.0 mi South 9.2 mph - N/A   Overcast
7:51 PM 33.8 °F 29.6 °F 28.4 °F 81% 30.35 in 10.0 mi SW 4.6 mph - N/A   Overcast
8:55 PM 33.8 °F 27.7 °F 28.4 °F 81% 30.35 in 10.0 mi SSW 6.9 mph - N/A   Overcast
9:35 PM 33.8 °F 27.7 °F 30.2 °F 87% 30.35 in 10.0 mi WSW 6.9 mph - N/A   Overcast
9:55 PM 33.8 °F 27.0 °F 30.2 °F 87% 30.35 in 10.0 mi SSW 8.1 mph - N/A   Overcast
10:15 PM 33.8 °F 25.8 °F 30.2 °F 87% 30.35 in 10.0 mi SW 10.4 mph - N/A   Overcast
10:35 PM 33.8 °F 27.0 °F 30.2 °F 87% 30.36 in 10.0 mi SW 8.1 mph - N/A   Overcast
10:55 PM 33.8 °F 26.4 °F 30.2 °F 87% 30.36 in 10.0 mi SW 9.2 mph - N/A   Overcast
11:15 PM 33.8 °F 27.7 °F 30.2 °F 87% 30.36 in 10.0 mi SW 6.9 mph - N/A   Overcast
11:35 PM 33.8 °F 25.8 °F 28.4 °F 81% 30.35 in 10.0 mi South 10.4 mph - N/A   Overcast
11:55 PM 33.8 °F 24.8 °F 28.4 °F 81% 30.35 in 10.0 mi South 12.7 mph - N/A   Overcast